CZ-7A R/B (47852 NORAD) Tracking and Keplerian Element Data

This shows tracking and keplerian element data for the satellite.

Feedback or suggestion? Click here.




ElementValue
Catalog47852
NameCZ-7A R/B
Epoch Orbit70
Epoch Day99.71134594
Epoch Year2021
RAAN86.4768
Inclination19.6407
Eccentricity0.7226723
Argument of Perigee200.261
Mean Anonmoly101.3588
Mean Motion2.40268747
Decay Rate0.00024742
L11 47852U 21019B 21099.71134594 .00024742 -66178-6 29647-3 0 9999
L22 47852 19.6407 86.4768 7226723 200.2610 101.3588 2.40268747 707



Live tracking and technical data element details for CZ-7A R/B (NORAD 47852). CZ-7A R/B can be tracked NOW for your location showing map with azimuth and elevation plus other details from your city location.







IsCatalogInMostPopularTable: catalog: 47852, numindb: 86
Update: records affected: 1



GetName: 47852 CZ-7A R/B

Hit Count: updated at: Mon, 05 Jun 2023 00:23:58 GMT